Time,TemperatureF,DewpointF,PressureIn,WindDirection,WindDirectionDegrees,WindSpeedMPH,WindSpeedGustMPH,Humidity,HourlyPrecipIn,Conditions,Clouds,dailyrainin,SolarRadiationWatts/m^2,SoftwareType,DateUTC
2013-02-11 00:02:00,60.4,59.8,29.97,South,174,0.0,5.0,98,0.00,,,0.00,0,Wunderground v.1.15,2013-02-11 06:02:00,
2013-02-11 00:07:00,60.4,59.8,29.96,South,174,0.0,5.0,98,0.00,,,0.00,0,Wunderground v.1.15,2013-02-11 06:07:00,
2013-02-11 00:13:00,60.3,59.7,29.96,South,174,0.0,5.0,98,0.00,,,0.00,0,Wunderground v.1.15,2013-02-11 06:13:00,
2013-02-11 00:18:00,60.4,59.8,29.97,South,174,0.0,5.0,98,0.00,,,0.00,0,Wunderground v.1.15,2013-02-11 06:18:00,
2013-02-11 00:24:00,60.4,59.8,29.97,South,175,0.0,5.0,98,0.00,,,0.00,0,Wunderground v.1.15,2013-02-11 06:24:00,
2013-02-11 00:29:00,60.4,59.8,29.96,South,175,0.0,5.0,98,0.00,,,0.01,0,Wunderground v.1.15,2013-02-11 06:29:00,
2013-02-11 00:35:00,60.4,59.8,29.96,South,175,0.0,5.0,98,0.00,,,0.01,0,Wunderground v.1.15,2013-02-11 06:35:00,
2013-02-11 00:40:00,60.5,59.9,29.95,SW,234,0.0,5.0,98,0.00,,,0.01,0,Wunderground v.1.15,2013-02-11 06:40:00,
2013-02-11 00:45:00,60.6,60.0,29.96,WNW,302,1.0,5.0,98,0.00,,,0.01,0,Wunderground v.1.15,2013-02-11 06:45:00,
2013-02-11 00:51:00,60.6,60.0,29.96,WSW,237,1.0,5.0,98,0.00,,,0.01,0,Wunderground v.1.15,2013-02-11 06:51:00,
2013-02-11 00:56:00,60.6,60.0,29.96,WSW,237,0.0,5.0,98,0.00,,,0.01,0,Wunderground v.1.15,2013-02-11 06:56:00,
2013-02-11 01:02:00,60.5,59.9,29.95,WSW,237,0.0,0.0,98,0.00,,,0.01,0,Wunderground v.1.15,2013-02-11 07:02:00,
2013-02-11 01:08:00,60.5,59.9,29.96,WSW,237,0.0,0.0,98,0.00,,,0.01,0,Wunderground v.1.15,2013-02-11 07:08:00,
2013-02-11 01:13:00,60.4,59.8,29.94,SSE,152,0.0,0.0,98,0.00,,,0.01,0,Wunderground v.1.15,2013-02-11 07:13:00,
2013-02-11 01:19:00,60.4,59.8,29.96,SSE,152,0.0,0.0,98,0.00,,,0.01,0,Wunderground v.1.15,2013-02-11 07:19:00,
2013-02-11 01:24:00,60.4,59.8,29.96,SSE,152,0.0,0.0,98,0.00,,,0.01,0,Wunderground v.1.15,2013-02-11 07:24:00,
2013-02-11 01:29:00,60.4,59.8,29.96,SSE,152,0.0,0.0,98,0.00,,,0.01,0,Wunderground v.1.15,2013-02-11 07:29:00,
2013-02-11 01:35:00,60.4,59.8,29.95,SSE,152,0.0,0.0,98,0.00,,,0.02,0,Wunderground v.1.15,2013-02-11 07:35:00,
2013-02-11 01:40:00,60.4,59.8,29.96,SSE,152,0.0,0.0,98,0.00,,,0.02,0,Wunderground v.1.15,2013-02-11 07:40:00,
2013-02-11 01:46:00,60.4,59.8,29.96,SSE,152,0.0,0.0,98,0.00,,,0.02,0,Wunderground v.1.15,2013-02-11 07:46:00,
2013-02-11 01:51:00,60.4,59.8,29.96,SSE,152,0.0,0.0,98,0.00,,,0.02,0,Wunderground v.1.15,2013-02-11 07:51:00,
2013-02-11 01:57:00,60.4,59.8,29.97,SSE,152,0.0,0.0,98,0.00,,,0.02,0,Wunderground v.1.15,2013-02-11 07:57:00,
2013-02-11 02:02:00,60.4,60.1,29.97,SSE,152,0.0,0.0,99,0.00,,,0.02,0,Wunderground v.1.15,2013-02-11 08:02:00,
2013-02-11 02:07:00,60.4,60.1,29.96,SSE,152,0.0,0.0,99,0.00,,,0.02,0,Wunderground v.1.15,2013-02-11 08:07:00,
2013-02-11 02:13:00,60.4,60.1,29.97,SSE,152,0.0,0.0,99,0.00,,,0.02,0,Wunderground v.1.15,2013-02-11 08:13:00,
2013-02-11 02:18:00,60.4,60.1,29.96,SSE,152,0.0,0.0,99,0.00,,,0.02,0,Wunderground v.1.15,2013-02-11 08:18:00,
2013-02-11 02:24:00,60.4,60.1,29.96,SSE,152,0.0,0.0,99,0.00,,,0.02,0,Wunderground v.1.15,2013-02-11 08:24:00,
2013-02-11 02:29:00,60.4,60.1,29.96,SSE,152,0.0,0.0,99,0.00,,,0.02,0,Wunderground v.1.15,2013-02-11 08:29:00,
2013-02-11 02:35:00,60.4,60.1,29.96,SSE,152,0.0,0.0,99,0.00,,,0.02,0,Wunderground v.1.15,2013-02-11 08:35:00,
2013-02-11 02:40:00,60.4,60.1,29.95,SSE,152,0.0,0.0,99,0.00,,,0.02,0,Wunderground v.1.15,2013-02-11 08:40:00,
2013-02-11 02:45:00,60.4,60.1,29.95,SSE,152,0.0,0.0,99,0.00,,,0.02,0,Wunderground v.1.15,2013-02-11 08:45:00,
2013-02-11 02:51:00,60.4,60.1,29.94,SSE,152,0.0,0.0,99,0.00,,,0.02,0,Wunderground v.1.15,2013-02-11 08:51:00,
2013-02-11 02:56:00,60.4,60.1,29.94,SSE,152,0.0,0.0,99,0.00,,,0.02,0,Wunderground v.1.15,2013-02-11 08:56:00,
2013-02-11 03:01:00,60.4,60.1,29.95,SSE,152,0.0,0.0,99,0.00,,,0.02,0,Wunderground v.1.15,2013-02-11 09:01:00,
2013-02-11 03:07:00,60.4,60.1,29.95,SSE,152,0.0,0.0,99,0.00,,,0.03,0,Wunderground v.1.15,2013-02-11 09:07:00,
2013-02-11 03:12:00,60.4,60.1,29.94,SSE,152,0.0,0.0,99,0.00,,,0.03,0,Wunderground v.1.15,2013-02-11 09:12:00,
2013-02-11 03:18:00,60.4,60.1,29.95,SSE,152,0.0,0.0,99,0.00,,,0.03,0,Wunderground v.1.15,2013-02-11 09:18:00,
2013-02-11 03:23:00,60.4,60.1,29.96,SSE,152,0.0,0.0,99,0.00,,,0.03,0,Wunderground v.1.15,2013-02-11 09:23:00,
2013-02-11 03:28:00,60.4,60.1,29.95,SSE,152,0.0,0.0,99,0.00,,,0.03,0,Wunderground v.1.15,2013-02-11 09:28:00,
2013-02-11 03:34:00,60.4,60.1,29.96,NW,325,0.0,4.0,99,0.00,,,0.03,0,Wunderground v.1.15,2013-02-11 09:34:00,
2013-02-11 03:39:00,60.4,60.1,29.96,NNW,327,1.0,4.0,99,0.00,,,0.03,0,Wunderground v.1.15,2013-02-11 09:39:00,
2013-02-11 03:45:00,60.4,60.1,29.98,NNW,341,2.0,5.0,99,0.00,,,0.03,0,Wunderground v.1.15,2013-02-11 09:45:00,
2013-02-11 03:50:00,60.4,60.1,30.00,NNW,329,3.0,4.0,99,0.00,,,0.03,0,Wunderground v.1.15,2013-02-11 09:50:00,
2013-02-11 03:56:00,59.9,59.3,30.01,WNW,289,6.0,20.0,98,0.00,,,0.03,0,Wunderground v.1.15,2013-02-11 09:56:00,
2013-02-11 04:01:00,58.6,58.0,30.00,NNW,328,8.0,9.0,98,0.00,,,0.03,0,Wunderground v.1.15,2013-02-11 10:01:00,
2013-02-11 04:06:00,57.7,56.9,29.99,North,5,7.0,12.0,97,0.00,,,0.03,0,Wunderground v.1.15,2013-02-11 10:06:00,
2013-02-11 04:12:00,57.4,56.6,29.99,North,10,6.0,10.0,97,0.00,,,0.03,0,Wunderground v.1.15,2013-02-11 10:12:00,
2013-02-11 04:17:00,57.3,56.5,29.99,North,355,5.0,10.0,97,0.00,,,0.03,0,Wunderground v.1.15,2013-02-11 10:17:00,
2013-02-11 04:23:00,57.3,56.2,29.99,NNE,19,5.0,8.0,96,0.00,,,0.03,0,Wunderground v.1.15,2013-02-11 10:23:00,
2013-02-11 04:28:00,57.3,56.2,30.00,North,5,4.0,9.0,96,0.00,,,0.03,0,Wunderground v.1.15,2013-02-11 10:28:00,
2013-02-11 04:34:00,57.1,56.0,30.01,North,353,4.0,6.0,96,0.00,,,0.03,0,Wunderground v.1.15,2013-02-11 10:34:00,
2013-02-11 04:39:00,57.1,56.0,30.01,NNW,345,3.0,6.0,96,0.00,,,0.04,0,Wunderground v.1.15,2013-02-11 10:39:00,
2013-02-11 04:45:00,56.9,56.1,30.01,NE,36,4.0,8.0,97,0.00,,,0.04,0,Wunderground v.1.15,2013-02-11 10:45:00,
2013-02-11 04:50:00,56.6,55.5,30.03,NNE,24,3.0,3.0,96,0.00,,,0.04,0,Wunderground v.1.15,2013-02-11 10:50:00,
2013-02-11 04:56:00,55.9,54.2,30.03,North,5,2.0,7.0,94,0.00,,,0.04,0,Wunderground v.1.15,2013-02-11 10:56:00,
2013-02-11 05:01:00,55.5,54.1,30.03,NNW,345,3.0,3.0,95,0.00,,,0.04,0,Wunderground v.1.15,2013-02-11 11:01:00,
2013-02-11 05:06:00,55.1,53.7,30.03,NE,39,2.0,6.0,95,0.00,,,0.04,0,Wunderground v.1.15,2013-02-11 11:06:00,
2013-02-11 05:12:00,54.8,53.4,30.03,North,5,2.0,3.0,95,0.00,,,0.04,0,Wunderground v.1.15,2013-02-11 11:12:00,
2013-02-11 05:18:00,54.6,53.5,30.02,NNE,23,1.0,3.0,96,0.00,,,0.04,0,Wunderground v.1.15,2013-02-11 11:18:00,
2013-02-11 05:23:00,54.5,53.1,30.02,NNW,330,1.0,1.0,95,0.00,,,0.04,0,Wunderground v.1.15,2013-02-11 11:23:00,
2013-02-11 05:29:00,54.4,53.0,30.02,NNE,19,2.0,8.0,95,0.00,,,0.04,0,Wunderground v.1.15,2013-02-11 11:29:00,
2013-02-11 05:34:00,54.4,53.0,30.02,NNE,23,3.0,8.0,95,0.00,,,0.04,0,Wunderground v.1.15,2013-02-11 11:34:00,
2013-02-11 05:40:00,54.3,52.6,30.02,NNE,27,1.0,1.0,94,0.00,,,0.04,0,Wunderground v.1.15,2013-02-11 11:40:00,
2013-02-11 05:45:00,54.3,52.6,30.02,NNE,30,2.0,6.0,94,0.00,,,0.04,0,Wunderground v.1.15,2013-02-11 11:45:00,
2013-02-11 05:51:00,54.2,52.5,30.02,NNE,28,2.0,2.0,94,0.00,,,0.04,0,Wunderground v.1.15,2013-02-11 11:51:00,
2013-02-11 05:56:00,54.1,52.4,30.04,North,5,1.0,5.0,94,0.00,,,0.04,0,Wunderground v.1.15,2013-02-11 11:56:00,
2013-02-11 06:02:00,54.0,52.3,30.04,North,5,1.0,1.0,94,0.00,,,0.04,0,Wunderground v.1.15,2013-02-11 12:02:00,
2013-02-11 06:07:00,54.0,52.6,30.03,North,0,3.0,-999.0,95,0.00,,,0.11,0,Wunderground v.1.15,2013-02-11 12:07:00,
2013-02-11 06:12:00,53.8,52.4,30.05,ENE,68,3.0,-999.0,95,0.00,,,0.11,0,Wunderground v.1.15,2013-02-11 12:12:00,
2013-02-11 06:17:00,53.7,52.6,30.08,East,90,0.0,-999.0,96,0.00,,,0.11,0,Wunderground v.1.15,2013-02-11 12:17:00,
2013-02-11 06:22:00,53.6,52.5,30.08,N/A,-737280,0.0,-999.0,96,0.00,,,0.11,0,Wunderground v.1.15,2013-02-11 12:22:00,
2013-02-11 06:27:00,53.5,52.4,30.06,North,0,3.0,-999.0,96,0.00,,,0.11,0,Wunderground v.1.15,2013-02-11 12:27:00,
2013-02-11 06:32:00,53.5,52.7,30.05,NNE,23,3.0,-999.0,97,0.01,,,0.11,0,Wunderground v.1.15,2013-02-11 12:32:00,
2013-02-11 06:37:00,53.7,52.9,30.07,NNE,23,2.0,-999.0,97,0.01,,,0.11,0,Wunderground v.1.15,2013-02-11 12:37:00,
2013-02-11 06:42:00,53.8,53.0,30.07,NNE,23,3.0,-999.0,97,0.01,,,0.11,0,Wunderground v.1.15,2013-02-11 12:42:00,
2013-02-11 06:47:00,53.9,53.1,30.06,NNE,23,3.0,-999.0,97,0.01,,,0.11,0,Wunderground v.1.15,2013-02-11 12:47:00,
2013-02-11 06:52:00,53.8,53.0,30.07,North,0,3.0,-999.0,97,0.01,,,0.11,0,Wunderground v.1.15,2013-02-11 12:52:00,
2013-02-11 06:57:00,53.8,53.0,30.09,N/A,-737280,0.0,-999.0,97,0.01,,,0.11,0,Wunderground v.1.15,2013-02-11 12:57:00,
2013-02-11 07:02:00,53.5,52.4,30.09,NNE,23,1.0,-999.0,96,0.01,,,0.11,0,Wunderground v.1.15,2013-02-11 13:02:00,
2013-02-11 07:07:00,53.2,51.8,30.07,N/A,-737280,0.0,-999.0,95,0.01,,,0.11,0,Wunderground v.1.15,2013-02-11 13:07:00,
2013-02-11 07:12:00,52.7,51.0,30.07,NNE,23,1.0,-999.0,94,0.01,,,0.11,0,Wunderground v.1.15,2013-02-11 13:12:00,
2013-02-11 07:17:00,52.3,50.6,30.07,NNE,23,3.0,-999.0,94,0.01,,,0.11,0,Wunderground v.1.15,2013-02-11 13:17:00,
2013-02-11 07:22:00,52.1,50.7,30.07,NE,45,3.0,-999.0,95,0.01,,,0.11,0,Wunderground v.1.15,2013-02-11 13:22:00,
2013-02-11 07:27:00,51.9,50.5,30.08,NNE,23,0.0,-999.0,95,0.01,,,0.11,0,Wunderground v.1.15,2013-02-11 13:27:00,
2013-02-11 07:32:00,51.8,50.4,30.08,NNE,23,3.0,-999.0,95,0.00,,,0.11,0,Wunderground v.1.15,2013-02-11 13:32:00,
2013-02-11 07:37:00,51.7,50.3,30.10,N/A,-737280,0.0,-999.0,95,0.00,,,0.11,0,Wunderground v.1.15,2013-02-11 13:37:00,
2013-02-11 07:42:00,51.7,50.3,30.13,N/A,-737280,0.0,-999.0,95,0.01,,,0.11,0,Wunderground v.1.15,2013-02-11 13:42:00,
2013-02-11 07:47:00,51.6,50.2,30.12,NNE,23,2.0,-999.0,95,0.01,,,0.11,0,Wunderground v.1.15,2013-02-11 13:47:00,
2013-02-11 07:52:00,51.5,50.1,30.12,N/A,-737280,0.0,-999.0,95,0.01,,,0.11,0,Wunderground v.1.15,2013-02-11 13:52:00,
2013-02-11 07:57:00,51.5,50.1,30.13,N/A,-737280,0.0,-999.0,95,0.01,,,0.11,0,Wunderground v.1.15,2013-02-11 13:57:00,
2013-02-11 08:02:00,51.4,50.3,30.12,North,0,5.0,-999.0,96,0.01,,,0.11,7,Wunderground v.1.15,2013-02-11 14:02:00,
2013-02-11 08:07:00,51.3,50.2,30.11,North,0,5.0,-999.0,96,0.01,,,0.11,5,Wunderground v.1.15,2013-02-11 14:07:00,
2013-02-11 08:12:00,51.3,50.2,30.14,East,90,0.0,-999.0,96,0.02,,,0.11,5,Wunderground v.1.15,2013-02-11 14:12:00,
2013-02-11 08:17:00,51.2,50.1,30.13,NE,45,6.0,-999.0,96,0.02,,,0.11,7,Wunderground v.1.15,2013-02-11 14:17:00,
2013-02-11 08:22:00,51.1,50.0,30.10,North,0,6.0,-999.0,96,0.02,,,0.11,14,Wunderground v.1.15,2013-02-11 14:22:00,
2013-02-11 08:27:00,51.1,50.0,30.13,NNE,23,4.0,-999.0,96,0.02,,,0.11,7,Wunderground v.1.15,2013-02-11 14:27:00,
2013-02-11 08:32:00,51.1,50.0,30.12,NNE,23,5.0,-999.0,96,0.02,,,0.11,9,Wunderground v.1.15,2013-02-11 14:32:00,
2013-02-11 08:37:00,51.2,50.1,30.13,NE,45,5.0,-999.0,96,0.03,,,0.11,11,Wunderground v.1.15,2013-02-11 14:37:00,
2013-02-11 08:42:00,51.2,50.4,30.11,NNE,23,4.0,-999.0,97,0.02,,,0.11,12,Wunderground v.1.15,2013-02-11 14:42:00,
2013-02-11 08:47:00,51.2,50.4,30.11,NE,45,3.0,-999.0,97,0.02,,,0.11,12,Wunderground v.1.15,2013-02-11 14:47:00,
2013-02-11 08:52:00,51.3,50.5,30.14,NW,315,3.0,-999.0,97,0.02,,,0.11,9,Wunderground v.1.15,2013-02-11 14:52:00,
2013-02-11 08:57:00,51.4,50.6,30.12,NNE,23,2.0,-999.0,97,0.02,,,0.11,21,Wunderground v.1.15,2013-02-11 14:57:00,
2013-02-11 09:02:00,51.5,50.7,30.13,NNE,23,6.0,-999.0,97,0.02,,,0.11,12,Wunderground v.1.15,2013-02-11 15:02:00,
2013-02-11 09:07:00,51.5,50.7,30.10,ENE,68,4.0,-999.0,97,0.03,,,0.11,18,Wunderground v.1.15,2013-02-11 15:07:00,
2013-02-11 09:12:00,51.5,50.7,30.11,N/A,-737280,0.0,-999.0,97,0.02,,,0.11,11,Wunderground v.1.15,2013-02-11 15:12:00,
2013-02-11 09:17:00,51.5,50.7,30.14,SW,225,2.0,-999.0,97,0.02,,,0.11,18,Wunderground v.1.15,2013-02-11 15:17:00,
2013-02-11 09:22:00,51.5,50.7,30.13,North,0,0.0,-999.0,97,0.02,,,0.11,14,Wunderground v.1.15,2013-02-11 15:22:00,
2013-02-11 09:27:00,51.4,50.6,30.15,N/A,-737280,0.0,-999.0,97,0.02,,,0.11,11,Wunderground v.1.15,2013-02-11 15:27:00,
2013-02-11 09:32:00,51.3,50.5,30.15,NNE,23,6.0,-999.0,97,0.02,,,0.11,16,Wunderground v.1.15,2013-02-11 15:32:00,
2013-02-11 09:37:00,51.2,50.4,30.15,North,0,2.0,-999.0,97,0.01,,,0.11,14,Wunderground v.1.15,2013-02-11 15:37:00,
2013-02-11 09:42:00,51.2,50.4,30.13,ENE,68,2.0,-999.0,97,0.01,,,0.11,21,Wunderground v.1.15,2013-02-11 15:42:00,
2013-02-11 09:47:00,51.0,50.2,30.14,NNE,23,3.0,-999.0,97,0.01,,,0.11,21,Wunderground v.1.15,2013-02-11 15:47:00,
2013-02-11 09:52:00,50.9,50.1,30.11,NE,45,0.0,-999.0,97,0.02,,,0.11,25,Wunderground v.1.15,2013-02-11 15:52:00,
2013-02-11 09:57:00,50.9,50.1,30.14,N/A,-737280,0.0,-999.0,97,0.02,,,0.11,11,Wunderground v.1.15,2013-02-11 15:57:00,
2013-02-11 10:02:00,50.9,50.1,30.13,N/A,-737280,0.0,-999.0,97,0.02,,,0.11,16,Wunderground v.1.15,2013-02-11 16:02:00,
2013-02-11 10:07:00,50.8,50.0,30.11,ENE,68,3.0,-999.0,97,0.01,,,0.11,12,Wunderground v.1.15,2013-02-11 16:07:00,
2013-02-11 10:12:00,50.8,50.0,30.10,ENE,68,4.0,-999.0,97,0.01,,,0.11,12,Wunderground v.1.15,2013-02-11 16:12:00,
2013-02-11 10:17:00,50.8,50.0,30.10,NE,45,3.0,-999.0,97,0.01,,,0.11,12,Wunderground v.1.15,2013-02-11 16:17:00,
2013-02-11 10:22:00,50.8,50.0,30.11,ENE,68,3.0,-999.0,97,0.01,,,0.11,12,Wunderground v.1.15,2013-02-11 16:22:00,
2013-02-11 10:27:00,50.8,50.0,30.12,N/A,-737280,0.0,-999.0,97,0.01,,,0.11,12,Wunderground v.1.15,2013-02-11 16:27:00,
2013-02-11 10:32:00,50.8,50.0,30.12,N/A,-737280,0.0,-999.0,97,0.01,,,0.11,12,Wunderground v.1.15,2013-02-11 16:32:00,
2013-02-11 10:37:00,50.9,50.1,30.12,N/A,-737280,0.0,-999.0,97,0.02,,,0.11,14,Wunderground v.1.15,2013-02-11 16:37:00,
2013-02-11 10:42:00,50.9,50.1,30.12,NE,45,2.0,-999.0,97,0.02,,,0.11,16,Wunderground v.1.15,2013-02-11 16:42:00,
2013-02-11 10:47:00,50.9,50.1,30.12,NNE,23,1.0,-999.0,97,0.02,,,0.11,14,Wunderground v.1.15,2013-02-11 16:47:00,
2013-02-11 10:52:00,50.9,50.4,30.11,N/A,-737280,0.0,-999.0,98,0.01,,,0.11,26,Wunderground v.1.15,2013-02-11 16:52:00,
2013-02-11 10:57:00,51.0,50.5,30.12,N/A,-737280,0.0,-999.0,98,0.01,,,0.11,19,Wunderground v.1.15,2013-02-11 16:57:00,
2013-02-11 11:02:00,51.0,50.5,30.12,N/A,-737280,0.0,-999.0,98,0.01,,,0.11,13,Wunderground v.1.15,2013-02-11 17:02:00,
2013-02-11 11:07:00,51.1,50.6,30.12,N/A,-737280,0.0,-999.0,98,0.01,,,0.11,19,Wunderground v.1.15,2013-02-11 17:07:00,
2013-02-11 11:12:00,51.1,50.6,30.11,N/A,-737280,0.0,-999.0,98,0.01,,,0.11,28,Wunderground v.1.15,2013-02-11 17:12:00,
2013-02-11 11:17:00,51.1,50.6,30.12,East,90,1.0,-999.0,98,0.01,,,0.11,18,Wunderground v.1.15,2013-02-11 17:17:00,
2013-02-11 11:22:00,51.2,50.7,30.12,ENE,68,2.0,-999.0,98,0.01,,,0.11,47,Wunderground v.1.15,2013-02-11 17:22:00,
2013-02-11 11:27:00,51.2,50.7,30.12,N/A,-737280,0.0,-999.0,98,0.01,,,0.11,49,Wunderground v.1.15,2013-02-11 17:27:00,
2013-02-11 11:32:00,51.3,50.8,30.10,N/A,-737280,0.0,-999.0,98,0.01,,,0.11,42,Wunderground v.1.15,2013-02-11 17:32:00,
2013-02-11 11:37:00,51.3,50.8,30.10,NNE,23,3.0,-999.0,98,0.00,,,0.11,37,Wunderground v.1.15,2013-02-11 17:37:00,
2013-02-11 11:42:00,51.3,50.8,30.11,ENE,68,1.0,-999.0,98,0.00,,,0.11,44,Wunderground v.1.15,2013-02-11 17:42:00,
2013-02-11 11:47:00,51.4,50.9,30.08,N/A,-737280,0.0,-999.0,98,0.00,,,0.11,58,Wunderground v.1.15,2013-02-11 17:47:00,
2013-02-11 11:52:00,51.4,50.9,30.08,ENE,68,1.0,-999.0,98,0.00,,,0.11,40,Wunderground v.1.15,2013-02-11 17:52:00,
2013-02-11 11:57:00,51.4,50.9,30.09,N/A,-737280,0.0,-999.0,98,0.00,,,0.11,32,Wunderground v.1.15,2013-02-11 17:57:00,
2013-02-11 12:02:00,51.4,50.9,30.09,N/A,-737280,0.0,-999.0,98,0.00,,,0.11,37,Wunderground v.1.15,2013-02-11 18:02:00,
2013-02-11 12:13:00,51.5,51.0,30.09,N/A,-737280,0.0,-999.0,98,0.00,,,0.11,16,Wunderground v.1.15,2013-02-11 18:13:00,
2013-02-11 12:19:00,51.5,51.0,30.09,ESE,102,1.0,4.0,98,0.00,,,0.12,26,Wunderground v.1.15,2013-02-11 18:19:00,
2013-02-11 12:24:00,51.5,51.0,30.08,East,99,1.0,1.0,98,0.00,,,0.12,28,Wunderground v.1.15,2013-02-11 18:24:00,
2013-02-11 12:30:00,51.6,51.1,30.10,East,82,0.0,5.0,98,0.00,,,0.12,30,Wunderground v.1.15,2013-02-11 18:30:00,
2013-02-11 12:36:00,51.6,51.1,30.08,ENE,64,0.0,3.0,98,0.00,,,0.12,125,Wunderground v.1.15,2013-02-11 18:36:00,
2013-02-11 12:41:00,51.7,51.2,30.06,East,87,0.0,5.0,98,0.00,,,0.12,107,Wunderground v.1.15,2013-02-11 18:41:00,
2013-02-11 12:47:00,51.8,51.3,30.05,SSE,150,1.0,1.0,98,0.00,,,0.12,62,Wunderground v.1.15,2013-02-11 18:47:00,
2013-02-11 12:52:00,51.8,51.3,30.04,NE,52,1.0,4.0,98,0.00,,,0.12,62,Wunderground v.1.15,2013-02-11 18:52:00,
2013-02-11 12:58:00,51.9,51.4,30.05,North,5,1.0,1.0,98,0.00,,,0.12,30,Wunderground v.1.15,2013-02-11 18:58:00,
2013-02-11 13:04:00,52.0,51.5,30.03,ENE,72,0.0,8.0,98,0.00,,,0.12,100,Wunderground v.1.15,2013-02-11 19:04:00,
2013-02-11 13:10:00,52.1,51.6,30.03,ENE,69,1.0,1.0,98,0.00,,,0.12,77,Wunderground v.1.15,2013-02-11 19:10:00,
2013-02-11 13:15:00,52.2,51.7,30.02,NE,39,1.0,4.0,98,0.00,,,0.12,88,Wunderground v.1.15,2013-02-11 19:15:00,
2013-02-11 13:21:00,52.3,51.8,30.02,ENE,65,1.0,1.0,98,0.00,,,0.12,54,Wunderground v.1.15,2013-02-11 19:21:00,
2013-02-11 13:27:00,52.3,51.8,30.02,ENE,75,1.0,2.0,98,0.00,,,0.12,42,Wunderground v.1.15,2013-02-11 19:27:00,
2013-02-11 13:33:00,52.4,51.9,30.03,ESE,123,0.0,3.0,98,0.00,,,0.12,37,Wunderground v.1.15,2013-02-11 19:33:00,
2013-02-11 13:38:00,52.4,51.9,30.05,ESE,113,0.0,3.0,98,0.00,,,0.12,30,Wunderground v.1.15,2013-02-11 19:38:00,
2013-02-11 13:44:00,52.6,52.1,30.05,East,96,0.0,0.0,98,0.00,,,0.13,42,Wunderground v.1.15,2013-02-11 19:44:00,
2013-02-11 13:50:00,52.6,52.1,30.03,East,93,0.0,1.0,98,0.00,,,0.13,69,Wunderground v.1.15,2013-02-11 19:50:00,
2013-02-11 13:56:00,52.7,52.2,30.03,East,93,0.0,1.0,98,0.00,,,0.13,54,Wunderground v.1.15,2013-02-11 19:56:00,
2013-02-11 14:01:00,52.8,52.3,30.03,East,92,0.0,0.0,98,0.00,,,0.13,58,Wunderground v.1.15,2013-02-11 20:01:00,
2013-02-11 14:07:00,52.8,52.3,30.03,East,93,0.0,0.0,98,0.00,,,0.13,44,Wunderground v.1.15,2013-02-11 20:07:00,
2013-02-11 14:12:00,52.9,52.4,30.03,East,93,0.0,1.0,98,0.00,,,0.13,30,Wunderground v.1.15,2013-02-11 20:12:00,
2013-02-11 14:17:00,52.9,52.4,30.02,East,95,1.0,2.0,98,0.00,,,0.13,21,Wunderground v.1.15,2013-02-11 20:17:00,
2013-02-11 14:23:00,52.9,52.4,30.01,East,92,1.0,2.0,98,0.00,,,0.13,21,Wunderground v.1.15,2013-02-11 20:23:00,
2013-02-11 14:29:00,52.9,52.4,30.01,NE,48,1.0,4.0,98,0.00,,,0.13,11,Wunderground v.1.15,2013-02-11 20:29:00,
2013-02-11 14:34:00,52.9,52.4,30.00,NE,34,1.0,2.0,98,0.00,,,0.13,5,Wunderground v.1.15,2013-02-11 20:34:00,
2013-02-11 14:40:00,52.8,52.3,30.03,North,354,2.0,3.0,98,0.00,,,0.13,12,Wunderground v.1.15,2013-02-11 20:40:00,
2013-02-11 14:46:00,52.8,52.3,30.05,ESE,106,1.0,3.0,98,0.00,,,0.13,23,Wunderground v.1.15,2013-02-11 20:46:00,
2013-02-11 14:52:00,52.8,52.3,30.06,ESE,105,0.0,0.0,98,0.00,,,0.13,14,Wunderground v.1.15,2013-02-11 20:52:00,
2013-02-11 14:57:00,52.8,52.3,30.04,ESE,105,0.0,0.0,98,0.00,,,0.13,33,Wunderground v.1.15,2013-02-11 20:57:00,
2013-02-11 15:02:00,52.8,52.3,30.03,ESE,110,0.0,0.0,98,0.00,,,0.13,23,Wunderground v.1.15,2013-02-11 21:02:00,
2013-02-11 15:08:00,52.8,52.3,30.04,East,100,0.0,1.0,98,0.00,,,0.13,14,Wunderground v.1.15,2013-02-11 21:08:00,
2013-02-11 15:14:00,52.8,52.3,30.05,East,100,0.0,0.0,98,0.00,,,0.13,11,Wunderground v.1.15,2013-02-11 21:14:00,
2013-02-11 15:20:00,52.8,52.3,30.04,East,100,0.0,0.0,98,0.00,,,0.13,25,Wunderground v.1.15,2013-02-11 21:20:00,
2013-02-11 15:26:00,52.8,52.3,30.03,East,100,0.0,0.0,98,0.00,,,0.13,70,Wunderground v.1.15,2013-02-11 21:26:00,
2013-02-11 15:32:00,52.9,52.4,30.05,NNW,339,0.0,1.0,98,0.00,,,0.13,44,Wunderground v.1.15,2013-02-11 21:32:00,
2013-02-11 15:38:00,53.0,52.5,30.05,NNW,341,0.0,3.0,98,0.00,,,0.13,37,Wunderground v.1.15,2013-02-11 21:38:00,
2013-02-11 15:43:00,53.0,52.5,30.03,North,5,1.0,3.0,98,0.00,,,0.14,49,Wunderground v.1.15,2013-02-11 21:43:00,
2013-02-11 15:48:00,53.0,52.5,30.04,North,10,1.0,3.0,98,0.00,,,0.14,28,Wunderground v.1.15,2013-02-11 21:48:00,
2013-02-11 15:54:00,53.0,52.5,30.04,NNE,19,1.0,5.0,98,0.00,,,0.14,23,Wunderground v.1.15,2013-02-11 21:54:00,
2013-02-11 15:59:00,53.0,52.5,30.04,NNE,26,1.0,5.0,98,0.00,,,0.14,33,Wunderground v.1.15,2013-02-11 21:59:00,
2013-02-11 16:05:00,53.0,52.5,30.04,NNE,31,0.0,3.0,98,0.00,,,0.14,28,Wunderground v.1.15,2013-02-11 22:05:00,
2013-02-11 16:10:00,53.0,52.5,30.02,East,83,1.0,1.0,98,0.00,,,0.14,26,Wunderground v.1.15,2013-02-11 22:10:00,
2013-02-11 16:16:00,53.0,52.5,30.02,East,79,1.0,3.0,98,0.00,,,0.14,16,Wunderground v.1.15,2013-02-11 22:16:00,
2013-02-11 16:21:00,53.0,52.5,30.00,NE,54,0.0,2.0,98,0.00,,,0.14,18,Wunderground v.1.15,2013-02-11 22:21:00,
2013-02-11 16:27:00,52.9,52.4,30.03,SSW,196,1.0,3.0,98,0.00,,,0.14,5,Wunderground v.1.15,2013-02-11 22:27:00,
2013-02-11 16:33:00,52.9,52.4,30.00,East,83,1.0,3.0,98,0.00,,,0.14,25,Wunderground v.1.15,2013-02-11 22:33:00,
2013-02-11 16:39:00,52.9,52.4,30.01,NNW,348,1.0,3.0,98,0.00,,,0.14,51,Wunderground v.1.15,2013-02-11 22:39:00,
2013-02-11 16:44:00,52.9,52.4,30.02,East,98,0.0,1.0,98,0.00,,,0.14,18,Wunderground v.1.15,2013-02-11 22:44:00,
2013-02-11 16:50:00,52.9,52.4,30.06,NE,56,0.0,0.0,98,0.00,,,0.14,0,Wunderground v.1.15,2013-02-11 22:50:00,
2013-02-11 16:55:00,53.0,52.5,30.05,NE,56,0.0,0.0,98,0.00,,,0.14,5,Wunderground v.1.15,2013-02-11 22:55:00,
2013-02-11 17:01:00,52.9,52.4,30.02,NNE,25,0.0,3.0,98,0.00,,,0.14,9,Wunderground v.1.15,2013-02-11 23:01:00,
2013-02-11 17:07:00,53.0,52.5,30.05,NE,41,1.0,3.0,98,0.00,,,0.14,12,Wunderground v.1.15,2013-02-11 23:07:00,
2013-02-11 17:12:00,53.0,52.5,30.07,NE,40,0.0,0.0,98,0.00,,,0.14,21,Wunderground v.1.15,2013-02-11 23:12:00,
2013-02-11 17:18:00,53.0,52.5,30.03,ESE,109,0.0,0.0,98,0.00,,,0.14,23,Wunderground v.1.15,2013-02-11 23:18:00,
2013-02-11 17:23:00,53.0,52.5,30.04,ENE,67,0.0,0.0,98,0.00,,,0.14,11,Wunderground v.1.15,2013-02-11 23:23:00,
2013-02-11 17:29:00,52.9,52.4,30.03,NE,36,1.0,4.0,98,0.00,,,0.14,5,Wunderground v.1.15,2013-02-11 23:29:00,
2013-02-11 17:34:00,52.9,52.4,30.05,NE,36,1.0,3.0,98,0.00,,,0.14,0,Wunderground v.1.15,2013-02-11 23:34:00,
2013-02-11 17:40:00,52.9,52.4,30.04,NE,56,1.0,1.0,98,0.00,,,0.14,0,Wunderground v.1.15,2013-02-11 23:40:00,
2013-02-11 17:46:00,52.9,52.4,30.04,ENE,59,1.0,1.0,98,0.00,,,0.14,0,Wunderground v.1.15,2013-02-11 23:46:00,
2013-02-11 17:51:00,52.9,52.4,30.04,NE,47,1.0,3.0,98,0.00,,,0.15,0,Wunderground v.1.15,2013-02-11 23:51:00,
2013-02-11 17:56:00,52.9,52.4,30.05,NE,42,1.0,4.0,98,0.00,,,0.15,0,Wunderground v.1.15,2013-02-11 23:56:00,
2013-02-11 18:02:00,52.9,52.4,30.06,NE,38,1.0,3.0,98,0.00,,,0.15,0,Wunderground v.1.15,2013-02-12 00:02:00,
2013-02-11 18:07:00,52.9,52.4,30.06,NE,38,0.0,3.0,98,0.00,,,0.15,0,Wunderground v.1.15,2013-02-12 00:07:00,
2013-02-11 18:13:00,53.0,52.5,30.06,NNE,21,0.0,1.0,98,0.00,,,0.15,0,Wunderground v.1.15,2013-02-12 00:13:00,
2013-02-11 18:19:00,53.0,52.5,30.03,NE,36,1.0,5.0,98,0.00,,,0.15,0,Wunderground v.1.15,2013-02-12 00:19:00,
2013-02-11 18:24:00,52.9,52.4,30.03,NE,40,1.0,2.0,98,0.00,,,0.15,0,Wunderground v.1.15,2013-02-12 00:24:00,
2013-02-11 18:30:00,53.0,52.5,30.05,NE,40,1.0,1.0,98,0.00,,,0.15,0,Wunderground v.1.15,2013-02-12 00:30:00,
2013-02-11 18:36:00,53.1,52.6,30.06,NE,42,1.0,1.0,98,0.00,,,0.15,0,Wunderground v.1.15,2013-02-12 00:36:00,
2013-02-11 18:42:00,53.1,52.6,30.06,NE,40,1.0,1.0,98,0.00,,,0.15,0,Wunderground v.1.15,2013-02-12 00:42:00,
2013-02-11 18:47:00,53.1,52.6,30.07,NE,40,0.0,1.0,98,0.00,,,0.15,0,Wunderground v.1.15,2013-02-12 00:47:00,
2013-02-11 18:53:00,53.1,52.6,30.07,NE,41,1.0,5.0,98,0.00,,,0.15,0,Wunderground v.1.15,2013-02-12 00:53:00,
2013-02-11 18:58:00,53.1,52.6,30.06,NE,41,1.0,5.0,98,0.00,,,0.15,0,Wunderground v.1.15,2013-02-12 00:58:00,
2013-02-11 19:03:00,53.1,52.6,30.08,NE,41,0.0,1.0,98,0.00,,,0.15,0,Wunderground v.1.15,2013-02-12 01:03:00,
2013-02-11 19:09:00,53.1,52.6,30.08,NE,41,0.0,2.0,98,0.00,,,0.15,0,Wunderground v.1.15,2013-02-12 01:09:00,
2013-02-11 19:15:00,53.1,52.6,30.09,NW,308,1.0,5.0,98,0.00,,,0.15,0,Wunderground v.1.15,2013-02-12 01:15:00,
2013-02-11 19:20:00,53.2,52.7,30.09,NW,306,1.0,1.0,98,0.00,,,0.15,0,Wunderground v.1.15,2013-02-12 01:20:00,
2013-02-11 19:25:00,53.1,52.6,30.07,ENE,73,1.0,2.0,98,0.00,,,0.16,0,Wunderground v.1.15,2013-02-12 01:25:00,
2013-02-11 19:30:00,53.1,52.6,30.07,ENE,74,0.0,0.0,98,0.00,,,0.16,0,Wunderground v.1.15,2013-02-12 01:30:00,
2013-02-11 19:36:00,53.0,52.5,30.07,ENE,58,0.0,0.0,98,0.00,,,0.16,0,Wunderground v.1.15,2013-02-12 01:36:00,
2013-02-11 19:42:00,53.0,52.5,30.07,NE,39,0.0,2.0,98,0.00,,,0.16,0,Wunderground v.1.15,2013-02-12 01:42:00,
2013-02-11 19:47:00,53.0,52.5,30.07,NNE,29,1.0,7.0,98,0.00,,,0.16,0,Wunderground v.1.15,2013-02-12 01:47:00,
2013-02-11 19:52:00,53.0,52.5,30.07,NE,34,1.0,2.0,98,0.00,,,0.16,0,Wunderground v.1.15,2013-02-12 01:52:00,
2013-02-11 19:58:00,53.0,52.5,30.07,NE,40,2.0,3.0,98,0.00,,,0.16,0,Wunderground v.1.15,2013-02-12 01:58:00,
2013-02-11 20:04:00,52.9,52.4,30.06,NE,41,2.0,4.0,98,0.00,,,0.16,0,Wunderground v.1.15,2013-02-12 02:04:00,
2013-02-11 20:09:00,52.8,52.3,30.06,North,10,1.0,6.0,98,0.00,,,0.16,0,Wunderground v.1.15,2013-02-12 02:09:00,
2013-02-11 20:15:00,52.7,52.2,30.08,NNE,29,1.0,1.0,98,0.00,,,0.16,0,Wunderground v.1.15,2013-02-12 02:15:00,
2013-02-11 20:20:00,52.7,52.2,30.07,NNE,30,0.0,3.0,98,0.00,,,0.16,0,Wunderground v.1.15,2013-02-12 02:20:00,
2013-02-11 20:26:00,52.6,52.1,30.06,East,94,0.0,5.0,98,0.00,,,0.16,0,Wunderground v.1.15,2013-02-12 02:26:00,
2013-02-11 20:32:00,52.6,52.1,30.06,NNE,30,1.0,4.0,98,0.00,,,0.16,0,Wunderground v.1.15,2013-02-12 02:32:00,
2013-02-11 20:37:00,52.5,52.0,30.05,ENE,76,1.0,4.0,98,0.00,,,0.16,0,Wunderground v.1.15,2013-02-12 02:37:00,
2013-02-11 20:43:00,52.4,51.9,30.06,NE,38,2.0,8.0,98,0.00,,,0.16,0,Wunderground v.1.15,2013-02-12 02:43:00,
2013-02-11 20:49:00,52.4,51.9,30.06,ENE,73,2.0,8.0,98,0.00,,,0.16,0,Wunderground v.1.15,2013-02-12 02:49:00,
2013-02-11 20:55:00,52.4,51.9,30.07,North,5,2.0,9.0,98,0.00,,,0.16,0,Wunderground v.1.15,2013-02-12 02:55:00,
2013-02-11 21:00:00,52.3,51.8,30.07,NE,44,2.0,2.0,98,0.00,,,0.16,0,Wunderground v.1.15,2013-02-12 03:00:00,
2013-02-11 21:06:00,52.3,51.8,30.08,NE,47,0.0,2.0,98,0.00,,,0.16,0,Wunderground v.1.15,2013-02-12 03:06:00,
2013-02-11 21:12:00,52.3,51.8,30.08,NE,40,0.0,5.0,98,0.00,,,0.16,0,Wunderground v.1.15,2013-02-12 03:12:00,
2013-02-11 21:18:00,52.2,51.7,30.08,NE,44,0.0,5.0,98,0.00,,,0.17,0,Wunderground v.1.15,2013-02-12 03:18:00,
2013-02-11 21:24:00,52.1,51.6,30.07,NE,46,0.0,3.0,98,0.00,,,0.17,0,Wunderground v.1.15,2013-02-12 03:24:00,
2013-02-11 21:29:00,52.1,51.6,30.07,NNE,33,1.0,3.0,98,0.00,,,0.17,0,Wunderground v.1.15,2013-02-12 03:29:00,
2013-02-11 21:34:00,52.1,51.6,30.07,NE,45,1.0,1.0,98,0.00,,,0.17,0,Wunderground v.1.15,2013-02-12 03:34:00,
2013-02-11 21:40:00,52.0,51.5,30.07,NE,46,1.0,1.0,98,0.00,,,0.17,0,Wunderground v.1.15,2013-02-12 03:40:00,
2013-02-11 21:46:00,52.0,51.5,30.07,NE,50,1.0,3.0,98,0.00,,,0.17,0,Wunderground v.1.15,2013-02-12 03:46:00,
2013-02-11 21:51:00,52.0,51.5,30.06,East,94,0.0,1.0,98,0.00,,,0.17,0,Wunderground v.1.15,2013-02-12 03:51:00,
2013-02-11 21:57:00,52.0,51.5,30.04,ENE,59,1.0,5.0,98,0.00,,,0.17,0,Wunderground v.1.15,2013-02-12 03:57:00,
2013-02-11 22:02:00,52.0,51.5,30.05,NE,52,2.0,9.0,98,0.00,,,0.17,0,Wunderground v.1.15,2013-02-12 04:02:00,
2013-02-11 22:07:00,52.0,51.5,30.05,N/A,-737280,0.0,-999.0,98,0.01,,,0.18,0,Wunderground v.1.15,2013-02-12 04:07:00,
2013-02-11 22:12:00,52.0,51.5,30.06,NE,45,0.0,-999.0,98,0.01,,,0.18,0,Wunderground v.1.15,2013-02-12 04:12:00,
2013-02-11 22:17:00,52.0,51.5,30.05,N/A,-737280,0.0,-999.0,98,0.00,,,0.18,0,Wunderground v.1.15,2013-02-12 04:17:00,
2013-02-11 22:22:00,52.0,51.5,30.04,N/A,-737280,0.0,-999.0,98,0.00,,,0.18,0,Wunderground v.1.15,2013-02-12 04:22:00,
2013-02-11 22:27:00,51.9,51.4,30.06,NNE,23,1.0,-999.0,98,0.00,,,0.18,0,Wunderground v.1.15,2013-02-12 04:27:00,
2013-02-11 22:32:00,51.9,51.4,30.06,NW,315,0.0,-999.0,98,0.00,,,0.18,0,Wunderground v.1.15,2013-02-12 04:32:00,
2013-02-11 22:37:00,51.9,51.4,30.06,N/A,-737280,0.0,-999.0,98,0.00,,,0.18,0,Wunderground v.1.15,2013-02-12 04:37:00,
2013-02-11 22:42:00,51.8,51.3,30.05,NE,45,1.0,-999.0,98,0.00,,,0.18,0,Wunderground v.1.15,2013-02-12 04:42:00,
2013-02-11 22:47:00,51.8,51.3,30.04,NE,45,0.0,-999.0,98,0.00,,,0.18,0,Wunderground v.1.15,2013-02-12 04:47:00,
2013-02-11 22:52:00,51.8,51.3,30.05,NNE,23,0.0,-999.0,98,0.00,,,0.18,0,Wunderground v.1.15,2013-02-12 04:52:00,
2013-02-11 22:57:00,51.8,51.3,30.06,NNE,23,1.0,-999.0,98,0.00,,,0.18,0,Wunderground v.1.15,2013-02-12 04:57:00,
2013-02-11 23:02:00,51.8,51.3,30.05,NNE,23,3.0,-999.0,98,0.00,,,0.18,0,Wunderground v.1.15,2013-02-12 05:02:00,
2013-02-11 23:07:00,51.8,51.3,30.05,N/A,-737280,0.0,-999.0,98,0.00,,,0.18,0,Wunderground v.1.15,2013-02-12 05:07:00,
2013-02-11 23:12:00,51.8,51.3,30.05,NE,45,0.0,-999.0,98,0.00,,,0.18,0,Wunderground v.1.15,2013-02-12 05:12:00,
2013-02-11 23:17:00,51.8,51.3,30.04,NE,45,0.0,-999.0,98,0.00,,,0.18,0,Wunderground v.1.15,2013-02-12 05:17:00,
2013-02-11 23:22:00,51.7,51.2,30.04,North,0,0.0,-999.0,98,0.00,,,0.18,0,Wunderground v.1.15,2013-02-12 05:22:00,
2013-02-11 23:27:00,51.7,51.2,30.04,North,0,5.0,-999.0,98,0.01,,,0.18,0,Wunderground v.1.15,2013-02-12 05:27:00,
2013-02-11 23:32:00,51.7,51.2,30.04,N/A,-737280,0.0,-999.0,98,0.01,,,0.18,0,Wunderground v.1.15,2013-02-12 05:32:00,
2013-02-11 23:37:00,51.7,51.2,30.05,N/A,-737280,0.0,-999.0,98,0.01,,,0.18,0,Wunderground v.1.15,2013-02-12 05:37:00,
2013-02-11 23:42:00,51.7,51.2,30.06,N/A,-737280,0.0,-999.0,98,0.01,,,0.18,0,Wunderground v.1.15,2013-02-12 05:42:00,
2013-02-11 23:47:00,51.7,51.2,30.05,NE,45,0.0,-999.0,98,0.01,,,0.18,0,Wunderground v.1.15,2013-02-12 05:47:00,
2013-02-11 23:52:00,51.7,51.2,30.04,NE,45,0.0,-999.0,98,0.01,,,0.18,0,Wunderground v.1.15,2013-02-12 05:52:00,
2013-02-11 23:57:00,51.7,51.2,30.06,NE,45,5.0,-999.0,98,0.01,,,0.18,0,Wunderground v.1.15,2013-02-12 05:57:00,